This is the latest recevied weather packets stored in our database for station/object VE3MNX. If no packets are shown the sender has not sent any weather packets the latest 10 day(s).
| Time | Temp. | Humidity | Pressure | Rain* | Wind** | Luminosity | Snow |
|---|---|---|---|---|---|---|---|
| 1778276378 | 10.56° C | 93% | 1007.5 hPa | 0 mm | - | - | - |
| 1778275478 | 10.56° C | 92% | 1007.5 hPa | 0 mm | - | - | - |
| 1778274577 | 11.11° C | 90% | 1007.5 hPa | 0 mm | - | - | - |
| 1778273677 | 11.11° C | 89% | 1007.8 hPa | 0 mm | - | - | - |
| 1778272777 | 11.11° C | 91% | 1008.1 hPa | 0 mm | - | - | - |
| 1778271878 | 11.11° C | 89% | 1008.5 hPa | 0 mm | - | - | - |
| 1778270979 | 11.67° C | 88% | 1008.8 hPa | 0 mm | - | - | - |
| 1778270079 | 12.22° C | 88% | 1008.7 hPa | 0 mm | - | - | - |
| 1778269179 | 11.11° C | 89% | 1009.2 hPa | 0 mm | - | - | - |
| 1778268278 | 10.56° C | 87% | 1009.5 hPa | 0 mm | - | - | - |
| 1778267378 | 10.56° C | 89% | 1009.1 hPa | 0 mm | - | - | - |
| 1778266479 | 10.56° C | 90% | 1009.1 hPa | 0 mm | - | - | - |
| 1778265580 | 10.56° C | 88% | 1009.5 hPa | 0 mm | - | - | - |
| 1778264679 | 10.56° C | 87% | 1009.5 hPa | 0 mm | - | - | - |
| 1778263778 | 10° C | 89% | 1009.8 hPa | 0 mm | - | - | - |
| 1778262879 | 10° C | 89% | 1010.2 hPa | 0 mm | - | - | - |
| 1778261979 | 10° C | 90% | 1010.2 hPa | 0 mm | - | - | - |
| 1778261079 | 10.56° C | 88% | 1010.2 hPa | 0 mm | - | - | - |
| 1778260178 | 11.11° C | 87% | 1010.5 hPa | 0 mm | - | - | - |
| 1778259279 | 11.11° C | 86% | 1010.8 hPa | 0 mm | - | - | - |
| 1778258380 | 10.56° C | 87% | 1010.5 hPa | 0 mm | - | - | - |
| 1778257479 | 11.11° C | 86% | 1010.8 hPa | 0 mm | - | - | - |
| 1778256582 | 10.56° C | 85% | 1010.5 hPa | 0 mm | - | - | - |
| 1778255678 | 11.11° C | 83% | 1011.1 hPa | 0 mm | - | - | - |
| 1778254779 | 10.56° C | 85% | 1011 hPa | 0 mm | - | - | - |
* Rain latest hour (hover to see other rain measurements)
** Current wind speed in m/s (hover to see current wind gust speed)